Weather History for KMNN - October, 2013

Change the Weather History Date:

Tuesday, October 1, 2013

  Actual Average (KDLZ) Record (KDLZ)
Temperature  
Mean Temperature 64 °F -  
Max Temperature 77 °F 70 °F 88 °F (1937)
Min Temperature 53 °F 46 °F 31 °F (1947)
Degree Days  
Heating Degree Days 1    
Growing Degree Days 14 (Base 50)    
Moisture  
Dew Point 57 °F    
Average Humidity 86    
Maximum Humidity 100    
Minimum Humidity 52    
Precipitation  
Precipitation 0.00 in - - ()
Sea Level Pressure  
Sea Level Pressure 30.04 in    
Wind  
Wind Speed 6 mph (SSW)    
Max Wind Speed 16 mph    
Max Gust Speed 23 mph    
Visibility 4 miles    
Events Fog    
Averages and records for this station are not official NWS values.
T = Trace of Precipitation, MM = Missing Value Source: NWS Daily Summary

Daily Weather History Graph

Daily Weather History Graph

Search for Another Location

Airport or City:

Trip Planner

Search our weather history database for the weather conditions in past years. The results will help you decide how hot, cold, wet, or windy it might be!

Date:

Astronomy

Oct. 01, 2013 Rise Set
Actual Time 7:28 AM EDT 7:13 PM EDT
Civil Twilight 7:01 AM EDT 7:41 PM EDT
Nautical Twilight 6:30 AM EDT 8:12 PM EDT
Astronomical Twilight 5:58 AM EDT 8:44 PM EDT
Moon 4:01 AM EDT (10/1) 5:17 PM EDT (10/1)
Length of Visible Light 12h 39m
Length of Day
11h 44m
Waning Crescent, 12% of the Moon is Illuminated
Oct 1
Waning Crescent
Oct 4
New
Oct 11
First Quarter
Oct 18
Full
Oct 26
Last Quarter

Hourly Weather History & Observations

Time (EDT) Temp. Dew Point Humidity Pressure Visibility Wind Dir Wind Speed Gust Speed Precip Events Conditions
12:53 AM 61.0 °F 57.9 °F 90% 30.01 in 5.0 mi SSW 6.9 mph - N/A   Clear
1:53 AM 57.9 °F 57.0 °F 97% 30.01 in 5.0 mi SSW 4.6 mph - N/A   Clear
2:53 AM 57.0 °F 55.9 °F 96% 30.02 in 3.0 mi South 6.9 mph - N/A   Clear
3:07 AM 57.2 °F 55.4 °F 94% 30.02 in 2.5 mi South 6.9 mph - N/A   Clear
3:25 AM 57.2 °F 55.4 °F 94% 30.02 in 3.0 mi SSW 5.8 mph - N/A   Clear
3:53 AM 57.9 °F 57.0 °F 97% 30.01 in 3.0 mi SSW 5.8 mph - N/A   Clear
4:53 AM 55.9 °F 55.0 °F 97% 30.02 in 3.0 mi SSW 4.6 mph - N/A   Clear
5:01 AM 55.4 °F 55.4 °F 100% 30.03 in 2.5 mi SSW 3.5 mph - N/A   Clear
5:25 AM 57.2 °F 55.4 °F 94% 30.04 in 1.8 mi Calm Calm - N/A   Clear
5:39 AM 57.2 °F 55.4 °F 94% 30.04 in 2.0 mi South 3.5 mph - N/A   Clear
5:49 AM 55.4 °F 55.4 °F 100% 30.04 in 1.8 mi South 3.5 mph - N/A   Clear
5:53 AM 55.9 °F 55.9 °F 100% 30.04 in 1.8 mi South 3.5 mph - N/A   Clear
6:10 AM 53.6 °F 53.6 °F 100% 30.05 in 0.8 mi South 3.5 mph - N/A   Clear
6:50 AM 53.6 °F 53.6 °F 100% 30.06 in 0.2 mi South 3.5 mph - N/A Fog Fog
6:53 AM 54.0 °F 54.0 °F 100% 30.06 in 0.5 mi South 4.6 mph - N/A Fog Fog
7:06 AM 53.6 °F 53.6 °F 100% 30.07 in 0.2 mi South 4.6 mph - N/A Fog Fog
7:42 AM 53.6 °F 53.6 °F 100% 30.07 in 0.2 mi SSW 3.5 mph - N/A Fog Fog
7:53 AM 53.1 °F 53.1 °F 100% 30.07 in 0.2 mi South 4.6 mph - N/A Fog Fog
8:05 AM 55.4 °F 55.4 °F 100% 30.07 in 0.5 mi South 4.6 mph - N/A Fog Fog
8:28 AM 57.2 °F 57.2 °F 100% 30.07 in 1.0 mi South 3.5 mph - N/A   Clear
8:53 AM 57.9 °F 57.0 °F 97% 30.08 in 1.2 mi South 4.6 mph - N/A   Clear
9:27 AM 60.8 °F 59.0 °F 94% 30.09 in 2.0 mi SSW 4.6 mph - N/A   Scattered Clouds
9:34 AM 62.6 °F 60.8 °F 94% 30.09 in 2.0 mi SSW 4.6 mph - N/A   Mostly Cloudy
9:53 AM 63.0 °F 60.1 °F 90% 30.09 in 2.5 mi SSW 4.6 mph - N/A   Overcast
10:10 AM 64.4 °F 60.8 °F 88% 30.09 in 3.0 mi South 5.8 mph - N/A   Scattered Clouds
10:53 AM 68.0 °F 62.1 °F 81% 30.08 in 4.0 mi SSW 6.9 mph - N/A   Haze
11:53 AM 71.1 °F 60.1 °F 68% 30.07 in 8.0 mi SW 11.5 mph 18.4 mph N/A   Mostly Cloudy
12:53 PM 73.9 °F 57.9 °F 57% 30.05 in 10.0 mi West 12.7 mph - N/A   Mostly Cloudy
1:53 PM 73.0 °F 57.0 °F 57% 30.05 in 10.0 mi WSW 12.7 mph 20.7 mph N/A   Scattered Clouds
2:53 PM 73.9 °F 57.0 °F 55% 30.03 in 10.0 mi West 12.7 mph - N/A   Mostly Cloudy
3:53 PM 75.9 °F 57.0 °F 52% 30.02 in 10.0 mi WSW 15.0 mph 21.9 mph N/A   Scattered Clouds
4:53 PM 75.9 °F 57.0 °F 52% 30.01 in 10.0 mi SW 16.1 mph 23.0 mph N/A   Scattered Clouds
5:53 PM 73.9 °F 57.0 °F 55% 30.01 in 9.0 mi SW 9.2 mph - N/A   Partly Cloudy
6:53 PM 71.1 °F 57.9 °F 63% 30.01 in 8.0 mi SW 6.9 mph - N/A   Clear
7:53 PM 66.9 °F 57.0 °F 70% 30.02 in 10.0 mi SSW 6.9 mph - N/A   Clear
8:53 PM 66.0 °F 57.9 °F 75% 30.03 in 10.0 mi SSW 6.9 mph - N/A   Clear
9:53 PM 64.0 °F 57.9 °F 80% 30.03 in 9.0 mi SW 6.9 mph - N/A   Clear
10:53 PM 64.0 °F 57.9 °F 80% 30.04 in 8.0 mi SW 8.1 mph - N/A   Clear
11:53 PM 62.1 °F 57.9 °F 86% 30.04 in 8.0 mi SW 6.9 mph - N/A   Clear